• In Hungary
  • List of Countries
  • For 7 days
  • Water Temperature
  • Satellite Maps
  • Weather Map
  • News
  • Weather Widgets
  • user-avatar
    Login

    Hourly Weather Moszczenica

    Today, 22 July, Sunday

    Time Temperature Precipitation Wind Pressure Humidity
    00:00 +20°C° 0 mm 1 mps 741 mmHg 71%
    01:00 +20°C° 0 mm 1 mps 741 mmHg 70%
    02:00 +19°C° 0 mm 1 mps 741 mmHg 72%
    03:00 +19°C° 0 mm 1 mps 741 mmHg 74%
    04:00 +18°C° 0 mm 1 mps 741 mmHg 76%
    05:00 +20°C° 0 mm 1 mps 741 mmHg 73%
    06:00 +22°C° 0 mm 1 mps 741 mmHg 69%
    07:00 +23°C° 0 mm 1 mps 742 mmHg 65%
    08:00 +25°C° 0 mm 1 mps 742 mmHg 60%
    09:00 +26°C° 0 mm 1 mps 741 mmHg 55%
    10:00 +27°C° 0 mm 2 mps 741 mmHg 50%
    11:00 +28°C° 0 mm 2 mps 741 mmHg 49%
    12:00 +28°C° 0 mm 2 mps 741 mmHg 48%
    13:00 +29°C° 0 mm 2 mps 741 mmHg 45%
    14:00 +28°C° 0 mm 2 mps 741 mmHg 46%
    15:00 +28°C° 0 mm 2 mps 741 mmHg 48%
    16:00 +28°C° 0 mm 3 mps 741 mmHg 50%
    17:00 +27°C° 0 mm 2 mps 741 mmHg 55%
    18:00 +26°C° 0 mm 2 mps 741 mmHg 61%
    19:00 +24°C° 0 mm 2 mps 741 mmHg 67%
    20:00 +23°C° 0 mm 2 mps 742 mmHg 68%
    21:00 +23°C° 0 mm 2 mps 742 mmHg 70%
    22:00 +21°C° 0 mm 2 mps 742 mmHg 71%
    23:00 +20°C° 0 mm 2 mps 742 mmHg 74%

    Tomorrow, 23 July, Monday

    Time Temperature Precipitation Wind Pressure Humidity
    00:00 +20°C° 0 mm 2 mps 742 mmHg 77%
    01:00 +19°C° 0 mm 2 mps 742 mmHg 80%
    02:00 +19°C° 0 mm 2 mps 742 mmHg 84%
    03:00 +18°C° 0 mm 2 mps 742 mmHg 87%
    04:00 +18°C° 0 mm 2 mps 742 mmHg 91%
    05:00 +19°C° 0 mm 2 mps 742 mmHg 87%
    06:00 +20°C° 0 mm 3 mps 743 mmHg 83%
    07:00 +21°C° 0 mm 3 mps 743 mmHg 79%
    08:00 +24°C° 0 mm 3 mps 743 mmHg 72%
    09:00 +25°C° 0 mm 4 mps 743 mmHg 64%
    10:00 +26°C° 0 mm 4 mps 743 mmHg 57%
    11:00 +27°C° 0 mm 4 mps 743 mmHg 54%
    12:00 +27°C° 0 mm 4 mps 743 mmHg 52%
    13:00 +28°C° 0 mm 5 mps 742 mmHg 49%
    14:00 +28°C° 0 mm 5 mps 742 mmHg 50%
    15:00 +28°C° 0 mm 5 mps 742 mmHg 51%
    16:00 +28°C° 0 mm 5 mps 742 mmHg 51%
    17:00 +26°C° 0 mm 5 mps 742 mmHg 57%
    18:00 +25°C° 0 mm 4 mps 742 mmHg 62%
    19:00 +23°C° 0 mm 4 mps 743 mmHg 68%
    20:00 +22°C° 0 mm 3 mps 743 mmHg 70%
    21:00 +21°C° 0 mm 3 mps 743 mmHg 72%
    22:00 +20°C° 0 mm 3 mps 744 mmHg 75%
    23:00 +19°C° 0 mm 3 mps 743 mmHg 77%

    Day after tomorrow, 24 July, Tuesday

    Time Temperature Precipitation Wind Pressure Humidity
    00:00 +19°C° 0 mm 3 mps 743 mmHg 80%
    01:00 +18°C° 0 mm 2 mps 743 mmHg 83%
    02:00 +17°C° 0 mm 2 mps 743 mmHg 83%
    03:00 +17°C° 0 mm 2 mps 743 mmHg 84%
    04:00 +17°C° 0 mm 3 mps 743 mmHg 85%
    05:00 +18°C° 0 mm 3 mps 744 mmHg 80%
    06:00 +19°C° 0 mm 3 mps 744 mmHg 76%
    07:00 +21°C° 0 mm 3 mps 744 mmHg 71%
    08:00 +22°C° 0 mm 4 mps 744 mmHg 65%
    09:00 +25°C° 0 mm 4 mps 744 mmHg 60%
    10:00 +26°C° 0 mm 4 mps 744 mmHg 54%
    11:00 +27°C° 0 mm 4 mps 744 mmHg 52%
    12:00 +28°C° 0 mm 4 mps 743 mmHg 51%
    13:00 +28°C° 0 mm 4 mps 743 mmHg 49%
    14:00 +28°C° 0 mm 4 mps 743 mmHg 50%
    15:00 +28°C° 0 mm 4 mps 743 mmHg 51%
    16:00 +28°C° 0 mm 5 mps 742 mmHg 51%
    17:00 +27°C° 0 mm 4 mps 742 mmHg 57%
    18:00 +26°C° 0 mm 3 mps 742 mmHg 63%
    19:00 +24°C° 0 mm 2 mps 743 mmHg 68%
    20:00 +23°C° 0 mm 2 mps 743 mmHg 71%
    21:00 +21°C° 0 mm 2 mps 743 mmHg 73%
    22:00 +20°C° 0 mm 2 mps 743 mmHg 76%
    23:00 +20°C° 0 mm 2 mps 743 mmHg 79%

    25 July, Wednesday

    Time Temperature Precipitation Wind Pressure Humidity
    00:00 +19°C° 0 mm 2 mps 743 mmHg 82%
    01:00 +18°C° 0 mm 2 mps 743 mmHg 85%
    02:00 +18°C° 0 mm 2 mps 743 mmHg 88%
    03:00 +17°C° 0 mm 2 mps 743 mmHg 90%
    04:00 +17°C° 0 mm 2 mps 743 mmHg 92%
    05:00 +18°C° 0 mm 2 mps 743 mmHg 87%
    06:00 +19°C° 0 mm 2 mps 743 mmHg 81%
    07:00 +21°C° 0 mm 3 mps 743 mmHg 75%
    08:00 +22°C° 0 mm 3 mps 743 mmHg 69%
    09:00 +25°C° 0 mm 3 mps 743 mmHg 63%
    10:00 +26°C° 0 mm 3 mps 743 mmHg 57%
    11:00 +27°C° 0 mm 4 mps 743 mmHg 56%
    12:00 +28°C° 0 mm 4 mps 742 mmHg 54%
    13:00 +28°C° 0 mm 4 mps 742 mmHg 52%
    14:00 +28°C° 0.1 mm 4 mps 742 mmHg 54%
    15:00 +28°C° 0.1 mm 4 mps 742 mmHg 55%
    16:00 +28°C° 0.1 mm 4 mps 742 mmHg 56%
    17:00 +27°C° 0.2 mm 4 mps 742 mmHg 63%
    18:00 +26°C° 0.2 mm 3 mps 742 mmHg 70%
    19:00 +24°C° 0.2 mm 3 mps 742 mmHg 77%
    20:00 +22°C° 0 mm 3 mps 742 mmHg 81%
    21:00 +23°C° 0 mm 2 mps 742 mmHg 86%
    22:00 +21°C° 0 mm 2 mps 742 mmHg 90%
    23:00 +20°C° 0.1 mm 2 mps 742 mmHg 92%

    26 July, Thursday

    Time Temperature Precipitation Wind Pressure Humidity
    00:00 +20°C° 0.1 mm 2 mps 742 mmHg 94%
    01:00 +19°C° 0.1 mm 2 mps 742 mmHg 96%
    02:00 +19°C° 0.1 mm 2 mps 742 mmHg 96%
    03:00 +19°C° 0.1 mm 2 mps 742 mmHg 97%
    04:00 +18°C° 0.1 mm 2 mps 742 mmHg 97%
    05:00 +20°C° 0 mm 2 mps 743 mmHg 94%
    06:00 +21°C° 0 mm 2 mps 743 mmHg 90%
    07:00 +23°C° 0 mm 2 mps 743 mmHg 86%
    08:00 +24°C° 0 mm 2 mps 743 mmHg 80%
    09:00 +25°C° 0 mm 3 mps 743 mmHg 74%
    10:00 +27°C° 0 mm 3 mps 743 mmHg 69%
    11:00 +28°C° 0.1 mm 3 mps 743 mmHg 65%
    12:00 +28°C° 0.1 mm 3 mps 742 mmHg 62%
    13:00 +29°C° 0.1 mm 3 mps 742 mmHg 58%
    14:00 +29°C° 0.1 mm 3 mps 742 mmHg 58%
    15:00 +29°C° 0.1 mm 2 mps 742 mmHg 58%
    16:00 +29°C° 0.1 mm 2 mps 742 mmHg 58%
    17:00 +28°C° 0.1 mm 2 mps 742 mmHg 63%
    18:00 +27°C° 0.1 mm 2 mps 742 mmHg 69%
    19:00 +26°C° 0.1 mm 2 mps 742 mmHg 74%
    20:00 +25°C° 0 mm 1 mps 742 mmHg 78%
    21:00 +24°C° 0 mm 1 mps 742 mmHg 81%
    22:00 +23°C° 0 mm 1 mps 742 mmHg 85%
    23:00 +23°C° 0 mm 1 mps 742 mmHg 87%

    27 July, Friday

    Time Temperature Precipitation Wind Pressure Humidity
    00:00 +23°C° 0 mm 1 mps 742 mmHg 88%
    01:00 +22°C° 0 mm 1 mps 742 mmHg 89%
    02:00 +22°C° 0 mm 1 mps 742 mmHg 91%
    03:00 +22°C° 0 mm 1 mps 742 mmHg 92%
    04:00 +21°C° 0 mm 1 mps 742 mmHg 93%
    05:00 +23°C° 0.1 mm 1 mps 743 mmHg 89%
    06:00 +24°C° 0.1 mm 1 mps 743 mmHg 85%
    07:00 +25°C° 0.1 mm 1 mps 743 mmHg 81%
    08:00 +26°C° 1.1 mm 2 mps 743 mmHg 77%
    09:00 +27°C° 1.1 mm 2 mps 743 mmHg 73%
    10:00 +28°C° 1.1 mm 2 mps 743 mmHg 69%
    11:00 +28°C° 0.8 mm 2 mps 742 mmHg 67%
    12:00 +28°C° 0.8 mm 2 mps 742 mmHg 66%
    13:00 +29°C° 0.8 mm 2 mps 742 mmHg 64%
    14:00 +29°C° 0.3 mm 2 mps 742 mmHg 62%
    15:00 +29°C° 0.3 mm 2 mps 742 mmHg 60%
    16:00 +30°C° 0.3 mm 2 mps 742 mmHg 58%
    17:00 +29°C° 0.3 mm 2 mps 742 mmHg 64%
    18:00 +28°C° 0.3 mm 1 mps 742 mmHg 69%
    19:00 +27°C° 0.3 mm 1 mps 742 mmHg 74%
    20:00 +26°C° 0.2 mm 1 mps 742 mmHg 77%
    21:00 +25°C° 0.2 mm 1 mps 742 mmHg 79%
    22:00 +24°C° 0.2 mm 1 mps 742 mmHg 81%
    23:00 +24°C° 0 mm 1 mps 742 mmHg 83%
    Show more